[[{"header":{"parameterUnit":"m.s-1","parameterCategory":1,"la1":30.2991,"la2":30.254,"lo1":-89.0895,"lo2":-89.0444,"dy":0.0017,"dx":0.0017,"nx":28,"ny":28,"refTime":"2023-11-10T09:00:00:Z","depth":0,"parameterNumber":2,"parameterNumberName":"U-component_of_WINDS"},"data":[0,0,0,0,0,0,0,0,0,0,0,0,0,0,0,0,0,0,0,0,0,0,0,0,0,0,0,0,0,0,0,0,0,0,0,0,0,0,0,0,0,0,0,0,0,0,0,0,0,0,0,0,0,0,0,0,0,0,-1.3761,-1.3762,0,-1.3872,-1.3873,-1.3874,-1.3883,-1.3882,-1.388,-1.3879,-1.3995,-1.3999,-1.4003,0,0,0,0,0,0,0,0,0,0,0,0,0,-1.3559,-1.3562,-1.3761,-1.3762,-1.3764,-1.3872,-1.3873,-1.3875,-1.3883,-1.3881,-1.388,-1.3879,-1.3994,-1.3999,-1.4004,0,0,0,0,0,0,0,0,0,0,0,0,0,-1.3656,-1.3563,-1.3761,-1.3781,-1.3784,-1.3871,-1.3873,-1.3875,-1.3883,-1.3881,-1.388,-1.3878,-1.3992,-1.3998,-1.4004,-1.408,0,0,-1.4024,-1.4026,0,0,0,0,0,0,0,0,-1.365,-1.3663,-1.3776,-1.378,-1.3783,-1.3862,-1.3844,-1.3944,-1.3884,-1.3846,-1.3879,-1.3877,-1.3952,-1.3962,-1.3987,-1.4086,-1.4091,-1.4024,-1.4028,-1.4031,-1.4033,0,0,0,0,0,0,0,-1.3643,-1.3658,-1.3805,-1.3778,-1.3782,-1.3785,-1.3797,-1.3863,-1.3908,-1.3849,-1.385,-1.3863,-1.3954,-1.398,-1.3989,-1.4092,-1.4024,-1.403,-1.4034,-1.4036,-1.4261,-1.4263,0,0,0,0,0,0,-1.3633,-1.3653,-1.3801,-1.3808,-1.3711,-1.379,-1.3803,-1.3838,-1.3907,-1.3916,-1.3864,-1.3862,-1.3971,-1.3982,-1.3993,-1.4088,-1.4031,-1.4037,-1.404,-1.4258,-1.4261,-1.4263,0,0,0,0,0,0,-1.3628,-1.3646,-1.3797,-1.3731,-1.375,-1.3796,-1.3835,-1.3841,-1.3868,-1.3919,-1.3927,-1.3883,-1.397,-1.3985,-1.4059,-1.4092,-1.404,-1.4045,-1.4256,-1.4259,-1.4262,-1.4277,0,0,0,0,0,0,-1.3622,-1.3644,-1.3673,-1.3731,-1.3754,-1.386,-1.3837,-1.3845,-1.3879,-1.3878,-1.3939,-1.3947,-1.3969,-1.4049,-1.4065,-1.41,-1.405,-1.4253,-1.4257,-1.4261,-1.4273,-1.428,-1.4285,0,0,0,0,0,-1.3615,-1.3673,-1.3674,-1.3692,-1.3791,-1.3862,-1.3874,-1.3898,-1.3881,-1.3911,-1.3944,-1.3945,-1.4085,-1.4057,-1.4075,-1.4112,-1.4251,-1.4256,-1.4261,-1.4271,-1.4279,-1.4285,0,0,0,0,0,0,-1.3618,-1.3681,-1.3683,-1.3761,-1.3806,-1.3863,-1.3901,-1.3906,-1.3956,-1.3954,-1.3982,-1.3995,-1.4069,-1.4098,-1.4064,-1.4189,-1.4167,-1.4175,-1.4168,-1.4176,-1.4182,-1.4174,-1.4056,0,0,0,0,0,-1.3627,-1.3679,-1.3731,-1.3795,-1.3818,-1.3855,-1.3887,-1.3902,-1.3949,-1.3968,-1.4006,-1.4053,-1.4108,-1.4143,-1.4196,-1.4277,-1.4291,-1.4312,-1.4318,-1.4322,-1.433,-1.4376,-1.4386,-1.4279,-1.4279,-1.4279,0,0,-1.3648,-1.3688,-1.3719,-1.3797,-1.3833,-1.3887,-1.3871,-1.3929,-1.3969,-1.3977,-1.405,-1.4079,-1.4133,-1.4211,-1.4248,-1.4238,-1.4362,-1.4329,-1.4332,-1.4337,-1.4382,-1.4392,-1.4401,-1.4283,-1.4282,-1.4282,0,0,-1.3712,-1.3748,-1.3806,-1.3842,-1.3897,-1.3922,-1.3936,-1.3992,-1.4012,-1.4085,-1.4092,-1.4141,-1.4235,-1.4273,-1.4305,-1.4385,-1.4389,-1.4402,-1.4434,-1.4478,-1.4487,-1.4494,-1.4524,-1.4534,-1.4409,-1.4409,-1.4409,0,-1.3731,-1.3812,-1.3835,-1.3892,-1.3927,-1.3936,-1.3995,-1.403,-1.4099,-1.4123,-1.4111,-1.4229,-1.4266,-1.4353,-1.4373,-1.4398,-1.4416,-1.4395,-1.4483,-1.4491,-1.4499,-1.4527,-1.4538,-1.441,-1.441,-1.441,-1.441,0,-1.3833,-1.3888,-1.3928,-1.3995,-1.4034,-1.4092,-1.4124,-1.4161,-1.4172,-1.4199,-1.4273,-1.4318,-1.4381,-1.4402,-1.4414,-1.4492,-1.4484,-1.4477,-1.4455,-1.451,-1.4537,-1.4548,-1.4412,-1.4411,-1.4411,-1.4411,0,0,-1.3902,-1.3981,-1.3996,-1.4026,-1.4088,-1.4132,-1.4191,-1.4251,-1.4283,-1.433,-1.4381,-1.446,-1.4454,-1.449,-1.4506,-1.4545,-1.4607,-1.4534,-1.4535,-1.4546,-1.4697,-1.4703,-1.4715,-1.4609,-1.4611,-1.4613,-1.4693,0,-1.3975,-1.4079,-1.4102,-1.4192,-1.4245,-1.4254,-1.4306,-1.4349,-1.4376,-1.4425,-1.4454,-1.451,-1.4497,-1.4519,-1.4558,-1.4591,-1.4638,-1.4585,-1.4658,-1.466,-1.4645,-1.4729,-1.4735,-1.4808,-1.4704,-1.4705,-1.4707,0,-1.4073,-1.4123,-1.4218,-1.4274,-1.4297,-1.4342,-1.44,-1.4446,-1.4497,-1.4513,-1.4554,-1.4566,-1.4628,-1.4602,-1.4689,-1.4653,-1.4684,-1.4705,-1.4709,-1.4717,-1.4687,-1.4741,-1.4832,-1.4843,-1.4724,-1.4722,-1.4721,0,-1.4116,-1.4207,-1.4276,-1.4302,-1.4367,-1.44,-1.4429,-1.4477,-1.4512,-1.4563,-1.4586,-1.4644,-1.4676,-1.4721,-1.4748,-1.4727,-1.4834,-1.481,-1.485,-1.485,-1.4873,-1.4871,-1.4972,-1.4891,-1.4891,-1.4891,-1.4891,0,-1.4195,-1.4253,-1.4296,-1.4338,-1.4404,-1.443,-1.4495,-1.4524,-1.4567,-1.4616,-1.4628,-1.4674,-1.4707,-1.4758,-1.478,-1.4849,-1.4864,-1.4879,-1.4885,-1.4879,-1.4877,-1.49,-1.4896,-1.4894,-1.4893,-1.4893,-1.4892,0,-1.4254,-1.4285,-1.4361,-1.4417,-1.4432,-1.4478,-1.4527,-1.4569,-1.4595,-1.4657,-1.4673,-1.4715,-1.4776,-1.4808,-1.4884,-1.4898,-1.4977,-1.4979,-1.496,-1.4962,-1.5001,-1.4997,-1.5121,-1.5139,-1.5045,-1.5046,-1.5047,0,-1.4303,-1.4348,-1.4409,-1.4442,-1.4472,-1.4525,-1.4561,-1.4589,-1.4626,-1.4687,-1.4722,-1.4783,-1.4833,-1.493,-1.4968,-1.5026,-1.503,-1.5069,-1.5039,-1.5032,-1.5032,-1.5029,-1.5035,-1.5075,-1.5076,-1.5076,-1.5077,0,-1.4386,-1.4399,-1.4451,-1.4508,-1.455,-1.4596,-1.4642,-1.4669,-1.4704,-1.4745,-1.4807,-1.4846,-1.4923,-1.4984,-1.5046,-1.5077,-1.5083,-1.5086,-1.5099,-1.5094,-1.5081,-1.5089,-1.4975,-1.5083,-1.5083,-1.5082,-1.5082,-1.5082,-1.4443,-1.4483,-1.4533,-1.4589,-1.4627,-1.4669,-1.4712,-1.4743,-1.4795,-1.486,-1.4873,-1.4939,-1.4989,-1.5072,-1.5104,-1.5157,-1.5149,-1.5167,-1.5172,-1.5176,-1.5178,-1.5072,-1.5168,-1.5168,-1.5168,-1.5168,-1.5168,0,-1.4528,-1.456,-1.4612,-1.4675,-1.472,-1.4721,-1.4772,-1.481,-1.4868,-1.4913,-1.4963,-1.5034,-1.5093,-1.5136,-1.5197,-1.523,-1.5235,-1.5246,-1.5244,-1.5251,-1.5181,-1.5165,-1.5241,-1.5241,-1.5241,-1.5241,-1.5241,-1.5241,-1.4577,-1.4646,-1.4665,-1.4754,-1.4786,-1.485,-1.4879,-1.4918,-1.4955,-1.5034,-1.5083,-1.511,-1.5155,-1.5219,-1.5274,-1.5285,-1.5308,-1.5318,-1.5329,-1.5264,-1.5256,-1.5249,-1.5233,-1.5322,-1.5323,-1.5395,-1.5396,-1.5396]},{"header":{"parameterUnit":"m.s-1","parameterCategory":1,"la1":30.2991,"la2":30.254,"lo1":-89.0895,"lo2":-89.0444,"dy":0.0017,"dx":0.0017,"nx":28,"ny":28,"refTime":"2023-11-10T09:00:00:Z","depth":0,"parameterNumber":3,"parameterNumberName":"V-component_of_WINDS"},"data":[0,0,0,0,0,0,0,0,0,0,0,0,0,0,0,0,0,0,0,0,0,0,0,0,0,0,0,0,0,0,0,0,0,0,0,0,0,0,0,0,0,0,0,0,0,0,0,0,0,0,0,0,0,0,0,0,0,0,-4.8689,-4.8689,0,-4.8677,-4.8677,-4.8676,-4.8591,-4.8589,-4.8587,-4.8585,-4.8573,-4.8575,-4.8577,0,0,0,0,0,0,0,0,0,0,0,0,0,-4.8639,-4.864,-4.8689,-4.8689,-4.8689,-4.8677,-4.8677,-4.8676,-4.8592,-4.8589,-4.8587,-4.8584,-4.8573,-4.8575,-4.8577,0,0,0,0,0,0,0,0,0,0,0,0,0,-4.8647,-4.864,-4.8689,-4.8645,-4.8641,-4.8677,-4.8677,-4.8676,-4.8592,-4.8589,-4.8586,-4.8583,-4.8572,-4.8575,-4.8577,-4.8655,0,0,-4.8585,-4.8586,0,0,0,0,0,0,0,0,-4.8647,-4.8649,-4.8651,-4.8648,-4.8643,-4.8632,-4.8654,-4.8669,-4.8593,-4.8611,-4.8585,-4.8582,-4.8596,-4.8596,-4.8601,-4.8654,-4.8654,-4.8585,-4.8586,-4.8587,-4.8588,0,0,0,0,0,0,0,-4.8646,-4.8649,-4.8684,-4.8652,-4.8647,-4.8626,-4.8623,-4.8657,-4.8621,-4.8609,-4.8603,-4.8602,-4.8593,-4.8598,-4.86,-4.8653,-4.8585,-4.8587,-4.8588,-4.8589,-4.877,-4.8773,0,0,0,0,0,0,-4.8652,-4.8649,-4.8684,-4.8684,-4.8637,-4.8629,-4.8627,-4.8639,-4.862,-4.8614,-4.8605,-4.8598,-4.8596,-4.8597,-4.8599,-4.8688,-4.8587,-4.859,-4.8591,-4.8767,-4.8771,-4.8774,0,0,0,0,0,0,-4.8651,-4.8656,-4.8685,-4.8665,-4.8667,-4.8633,-4.8648,-4.864,-4.8646,-4.8617,-4.861,-4.8617,-4.8593,-4.8595,-4.8641,-4.8687,-4.8591,-4.8593,-4.8763,-4.8768,-4.8772,-4.8868,0,0,0,0,0,0,-4.865,-4.8656,-4.8685,-4.8666,-4.8668,-4.8728,-4.8651,-4.8642,-4.865,-4.8642,-4.8627,-4.8622,-4.8591,-4.8638,-4.8644,-4.8688,-4.8595,-4.8758,-4.8765,-4.8771,-4.8861,-4.8876,-4.8888,0,0,0,0,0,-4.8648,-4.8713,-4.8687,-4.8692,-4.8704,-4.8731,-4.8732,-4.8695,-4.8654,-4.8683,-4.8665,-4.8622,-4.8681,-4.8644,-4.8649,-4.8695,-4.8755,-4.8763,-4.877,-4.8854,-4.8873,-4.8888,0,0,0,0,0,0,-4.8738,-4.8709,-4.868,-4.874,-4.8739,-4.8716,-4.8751,-4.8716,-4.8725,-4.8717,-4.8671,-4.8668,-4.8721,-4.8713,-4.8672,-4.8769,-4.8711,-4.872,-4.8773,-4.879,-4.8804,-4.8804,-4.8597,0,0,0,0,0,-4.8765,-4.8789,-4.8762,-4.8818,-4.8818,-4.8785,-4.8796,-4.8767,-4.8764,-4.8763,-4.8747,-4.8746,-4.8763,-4.8776,-4.8791,-4.8859,-4.8855,-4.8893,-4.8907,-4.8919,-4.8927,-4.8962,-4.8979,-4.8799,-4.8799,-4.8799,0,0,-4.882,-4.8808,-4.8826,-4.8836,-4.8831,-4.8857,-4.8785,-4.8816,-4.8834,-4.8767,-4.8809,-4.8798,-4.8793,-4.8851,-4.8875,-4.8845,-4.8976,-4.8928,-4.8938,-4.894,-4.8972,-4.8989,-4.9004,-4.8804,-4.8803,-4.8802,0,0,-4.8935,-4.8928,-4.8973,-4.8969,-4.8963,-4.894,-4.8952,-4.8935,-4.8925,-4.8966,-4.8916,-4.8938,-4.897,-4.8968,-4.8972,-4.9085,-4.9046,-4.9092,-4.9164,-4.9199,-4.9213,-4.9226,-4.9266,-4.9281,-4.91,-4.91,-4.91,0,-4.9004,-4.9041,-4.9001,-4.9034,-4.904,-4.898,-4.9026,-4.9024,-4.9024,-4.9029,-4.8995,-4.9034,-4.9026,-4.9082,-4.911,-4.9115,-4.9126,-4.9093,-4.9215,-4.9227,-4.9238,-4.9276,-4.9291,-4.9106,-4.9105,-4.9105,-4.9104,0,-4.9127,-4.9154,-4.9191,-4.9191,-4.9201,-4.9241,-4.9206,-4.9221,-4.9193,-4.9174,-4.9217,-4.9206,-4.9217,-4.9229,-4.9201,-4.9281,-4.9262,-4.9223,-4.9163,-4.9261,-4.9296,-4.931,-4.9114,-4.9112,-4.911,-4.9109,0,0,-4.9298,-4.9275,-4.9289,-4.9289,-4.9277,-4.9297,-4.9334,-4.9344,-4.9358,-4.936,-4.9389,-4.9418,-4.9381,-4.9385,-4.9356,-4.9387,-4.9478,-4.9343,-4.9342,-4.9368,-4.9565,-4.9595,-4.9613,-4.9452,-4.9454,-4.9457,-4.9565,0,-4.9407,-4.9468,-4.9433,-4.95,-4.9523,-4.9467,-4.9499,-4.9495,-4.9479,-4.9497,-4.9478,-4.9499,-4.9449,-4.9451,-4.9479,-4.9461,-4.9517,-4.9452,-4.9479,-4.9481,-4.9482,-4.9631,-4.9662,-4.9766,-4.9579,-4.9581,-4.9583,0,-4.9543,-4.955,-4.9619,-4.9603,-4.9611,-4.9641,-4.9648,-4.9666,-4.9661,-4.9646,-4.9651,-4.9615,-4.965,-4.9592,-4.9639,-4.9597,-4.9605,-4.9598,-4.9601,-4.9602,-4.9538,-4.9636,-4.9798,-4.9813,-4.9604,-4.9602,-4.9601,0,-4.966,-4.9687,-4.9731,-4.9733,-4.9715,-4.9737,-4.973,-4.9722,-4.9731,-4.9738,-4.9743,-4.9754,-4.976,-4.9769,-4.9737,-4.9697,-4.9789,-4.9727,-4.9778,-4.9779,-4.98,-4.9799,-4.9966,-4.9806,-4.9806,-4.9806,-4.9805,0,-4.9786,-4.9831,-4.9784,-4.9811,-4.9859,-4.9818,-4.9867,-4.9854,-4.9848,-4.9872,-4.9824,-4.9847,-4.9804,-4.9823,-4.9798,-4.9842,-4.9845,-4.9834,-4.9827,-4.9839,-4.984,-4.9844,-4.9836,-4.981,-4.9809,-4.9808,-4.9807,0,-4.9925,-4.9896,-4.994,-4.992,-4.9916,-4.9952,-4.9934,-4.9959,-4.9939,-4.997,-4.9975,-4.9945,-4.9965,-4.9934,-4.9951,-4.9934,-4.9994,-4.9976,-4.9996,-4.999,-5.0043,-5.0038,-5.0217,-5.0239,-5.0066,-5.0068,-5.0069,0,-5.0007,-5.004,-5.0023,-5.0035,-5.0032,-5.0053,-5.0061,-5.0022,-5.0033,-5.003,-5.0055,-5.0071,-5.0082,-5.0117,-5.0097,-5.011,-5.0091,-5.0153,-5.0093,-5.0103,-5.0092,-5.0091,-5.0094,-5.0166,-5.0168,-5.017,-5.0171,0,-5.0157,-5.014,-5.0154,-5.0164,-5.0175,-5.0181,-5.0183,-5.0196,-5.0155,-5.017,-5.019,-5.0198,-5.0215,-5.0232,-5.024,-5.0233,-5.0196,-5.019,-5.0202,-5.0214,-5.0224,-5.0219,-5.0029,-5.0186,-5.0185,-5.0183,-5.0183,-5.0182,-5.0269,-5.0296,-5.0288,-5.0305,-5.0302,-5.0305,-5.0327,-5.031,-5.0326,-5.0337,-5.0313,-5.0339,-5.0333,-5.0339,-5.0337,-5.0357,-5.0329,-5.0347,-5.0352,-5.0357,-5.0365,-5.0221,-5.0358,-5.0357,-5.0357,-5.0357,-5.0356,0,-5.0416,-5.0408,-5.0424,-5.0428,-5.0442,-5.0405,-5.0405,-5.0419,-5.0443,-5.044,-5.0452,-5.0475,-5.0491,-5.0472,-5.0484,-5.0504,-5.0487,-5.0509,-5.0507,-5.0506,-5.0389,-5.0377,-5.0522,-5.0522,-5.0522,-5.0522,-5.0522,-5.0522,-5.0493,-5.0536,-5.0519,-5.0559,-5.0551,-5.0576,-5.0579,-5.0582,-5.0579,-5.0607,-5.062,-5.0607,-5.0598,-5.061,-5.0623,-5.0617,-5.0624,-5.0652,-5.064,-5.053,-5.0514,-5.0499,-5.0487,-5.0653,-5.0654,-5.0755,-5.0756,-5.0757]}]]